date_utc,time_utc,latitude,longitude,sog,cog,time
unitless,HHMM.mmmmm,degrees_north,degrees_east,m/s,degrees clockwise from North,UTC
20100318,0000.00675,25.73133433,-80.16208933,0.02,180.0,2010-03-18T00:00:00.405Z
20100318,0001.00673,25.731334,-80.16208433,0.0,0.0,2010-03-18T00:01:00.404Z
20100318,0002.00670,25.7313365,-80.1620875,0.0,0.0,2010-03-18T00:02:00.402Z
20100318,0003.00668,25.7313415,-80.16208567,0.02,0.0,2010-03-18T00:03:00.401Z
20100318,0004.00665,25.73134317,-80.16208867,0.02,0.0,2010-03-18T00:04:00.399Z
20100318,0005.00663,25.73134333,-80.16208633,0.02,90.0,2010-03-18T00:05:00.398Z
20100318,0006.00660,25.73134267,-80.162088,0.02,90.0,2010-03-18T00:06:00.396Z
20100318,0007.00658,25.731343,-80.162089,0.02,90.0,2010-03-18T00:07:00.395Z
20100318,0008.00655,25.731342,-80.16209333,0.02,270.0,2010-03-18T00:08:00.393Z
20100318,0009.00653,25.73134533,-80.16209633,0.04,298.9,2010-03-18T00:09:00.392Z
20100318,0010.00650,25.7313425,-80.16209833,0.02,180.0,2010-03-18T00:10:00.390Z
20100318,0011.00647,25.7313385,-80.16209783,0.02,90.0,2010-03-18T00:11:00.388Z
20100318,0012.00645,25.73133867,-80.16209533,0.03,139.553,2010-03-18T00:12:00.387Z
20100318,0013.00642,25.731342,-80.1620945,0.02,0.0,2010-03-18T00:13:00.385Z
20100318,0014.00640,25.7313425,-80.16209567,0.0,0.0,2010-03-18T00:14:00.384Z
20100318,0015.00637,25.73134417,-80.16209467,0.02,0.0,2010-03-18T00:15:00.382Z
20100318,0016.00635,25.73134433,-80.16209517,0.02,0.0,2010-03-18T00:16:00.381Z
20100318,0017.00632,25.73134233,-80.16208933,0.02,90.0,2010-03-18T00:17:00.379Z
20100318,0018.00630,25.73134117,-80.1620875,0.0,0.0,2010-03-18T00:18:00.378Z
20100318,0019.00627,25.73133983,-80.16208567,0.03,42.169,2010-03-18T00:19:00.376Z
20100318,0020.00625,25.73134167,-80.16208567,0.02,317.831,2010-03-18T00:20:00.375Z
20100318,0021.00622,25.731343,-80.162088,0.03,137.831,2010-03-18T00:21:00.373Z
20100318,0022.00620,25.73133883,-80.16209017,0.03,136.099,2010-03-18T00:22:00.372Z
20100318,0023.00617,25.73133667,-80.16208833,0.02,180.0,2010-03-18T00:23:00.370Z
20100318,0024.00615,25.73133317,-80.1620855,0.0,0.0,2010-03-18T00:24:00.369Z
20100318,0025.00612,25.73133083,-80.16208333,0.02,90.0,2010-03-18T00:25:00.367Z
20100318,0026.00610,25.73133283,-80.16207783,0.04,60.371,2010-03-18T00:26:00.366Z
20100318,0027.00607,25.7313305,-80.162076,0.02,90.0,2010-03-18T00:27:00.364Z
20100318,0028.00605,25.73132767,-80.16207183,0.03,222.169,2010-03-18T00:28:00.363Z
20100318,0029.00602,25.73132667,-80.16207333,0.02,270.0,2010-03-18T00:29:00.361Z
20100318,0030.00600,25.73132933,-80.162075,0.02,0.0,2010-03-18T00:30:00.360Z
20100318,0031.00597,25.73132917,-80.1620785,0.02,0.0,2010-03-18T00:31:00.358Z
20100318,0032.00595,25.73133517,-80.16208083,0.02,270.0,2010-03-18T00:32:00.357Z
20100318,0033.00592,25.731335,-80.1620845,0.03,42.169,2010-03-18T00:33:00.355Z
20100318,0034.00590,25.73133283,-80.16208817,0.03,270.0,2010-03-18T00:34:00.354Z
20100318,0035.00587,25.73133167,-80.16209417,0.05,221.319,2010-03-18T00:35:00.352Z
20100318,0036.00585,25.73132967,-80.16210233,0.02,0.0,2010-03-18T00:36:00.351Z
20100318,0037.00582,25.73132517,-80.162104,0.03,90.0,2010-03-18T00:37:00.349Z
20100318,0038.00580,25.73132783,-80.1621035,0.04,241.84,2010-03-18T00:38:00.348Z
20100318,0039.00577,25.73133067,-80.16210067,0.02,180.0,2010-03-18T00:39:00.346Z
20100318,0040.00575,25.7313325,-80.162098,0.03,137.831,2010-03-18T00:40:00.345Z
20100318,0041.00572,25.73133567,-80.16209083,0.02,90.0,2010-03-18T00:41:00.343Z
20100318,0042.00570,25.73133833,-80.16208467,0.02,90.0,2010-03-18T00:42:00.342Z
20100318,0043.00567,25.73134033,-80.16208483,0.03,223.901,2010-03-18T00:43:00.340Z
20100318,0044.00565,25.7313415,-80.16208867,0.03,220.447,2010-03-18T00:44:00.339Z
20100318,0045.00562,25.73133967,-80.16208917,0.0,0.0,2010-03-18T00:45:00.337Z
20100318,0046.00560,25.731338,-80.1620895,0.03,42.169,2010-03-18T00:46:00.336Z
20100318,0047.00557,25.731335,-80.16209267,0.03,90.0,2010-03-18T00:47:00.334Z
20100318,0048.00555,25.73133317,-80.16208883,0.0,0.0,2010-03-18T00:48:00.333Z
20100318,0049.00552,25.73133483,-80.16208333,0.02,270.0,2010-03-18T00:49:00.331Z
20100318,0050.00550,25.73133533,-80.16208283,0.03,40.447,2010-03-18T00:50:00.330Z
20100318,0051.00547,25.73133317,-80.16208317,0.03,220.447,2010-03-18T00:51:00.328Z
20100318,0052.00545,25.73133233,-80.16208283,0.0,0.0,2010-03-18T00:52:00.327Z
20100318,0053.00542,25.73133033,-80.1620855,0.03,317.831,2010-03-18T00:53:00.325Z
20100318,0054.00540,25.73133317,-80.16208683,0.03,316.099,2010-03-18T00:54:00.324Z
20100318,0055.00537,25.73133583,-80.16209017,0.03,136.099,2010-03-18T00:55:00.322Z
20100318,0056.00535,25.731338,-80.16208967,0.07,285.874,2010-03-18T00:56:00.321Z
20100318,0057.00532,25.7313395,-80.1620915,0.03,270.0,2010-03-18T00:57:00.319Z
20100318,0058.00530,25.73134033,-80.16209233,0.05,90.0,2010-03-18T00:58:00.318Z
20100318,0059.00527,25.73133683,-80.162094,0.05,250.542,2010-03-18T00:59:00.316Z
20100318,0100.00525,25.73133683,-80.16209467,0.04,61.1,2010-03-18T01:00:00.315Z
20100318,0101.00522,25.73133483,-80.1620925,0.03,42.169,2010-03-18T01:01:00.313Z
20100318,0102.00520,25.7313335,-80.16209317,0.03,42.169,2010-03-18T01:02:00.312Z
20100318,0103.00517,25.73133467,-80.16209483,0.02,0.0,2010-03-18T01:03:00.310Z
20100318,0104.00515,25.73133683,-80.1620935,0.03,223.901,2010-03-18T01:04:00.309Z
20100318,0105.00512,25.73133733,-80.1620925,0.04,241.84,2010-03-18T01:05:00.307Z
20100318,0106.00510,25.73133667,-80.162091,0.03,43.901,2010-03-18T01:06:00.306Z
20100318,0107.00507,25.73133383,-80.16209183,0.02,137.831,2010-03-18T01:07:00.304Z
20100318,0108.00505,25.73132767,-80.16208967,0.04,240.371,2010-03-18T01:08:00.303Z
20100318,0109.00502,25.73133067,-80.162088,0.03,43.901,2010-03-18T01:09:00.301Z
20100318,0110.00500,25.73133217,-80.1620835,0.03,222.169,2010-03-18T01:10:00.300Z
20100318,0111.00497,25.731333,-80.16208417,0.05,69.425,2010-03-18T01:11:00.298Z
20100318,0112.00495,25.73133533,-80.16208333,0.0,0.0,2010-03-18T01:12:00.297Z
20100318,0113.00492,25.73133433,-80.16208267,0.02,270.0,2010-03-18T01:13:00.295Z
20100318,0114.00490,25.73133467,-80.1620835,0.02,180.0,2010-03-18T01:14:00.294Z
20100318,0115.00487,25.73133217,-80.16208817,0.02,180.0,2010-03-18T01:15:00.292Z
20100318,0116.00485,25.7313295,-80.16209067,0.03,319.553,2010-03-18T01:16:00.291Z
20100318,0117.00482,25.73133067,-80.16209083,0.02,270.0,2010-03-18T01:17:00.289Z
20100318,0118.00480,25.7313295,-80.162091,0.02,180.0,2010-03-18T01:18:00.288Z
20100318,0119.00477,25.73132783,-80.1620895,0.02,90.0,2010-03-18T01:19:00.286Z
20100318,0120.00475,25.73133,-80.1620905,0.03,317.831,2010-03-18T01:20:00.285Z
20100318,0121.00472,25.73133183,-80.162093,0.03,136.099,2010-03-18T01:21:00.283Z
20100318,0122.00470,25.731333,-80.16209317,0.0,0.0,2010-03-18T01:22:00.282Z
20100318,0123.00467,25.73133533,-80.16208967,0.0,0.0,2010-03-18T01:23:00.280Z
20100318,0124.00463,25.73133917,-80.1620865,0.03,316.099,2010-03-18T01:24:00.278Z
20100318,0125.00462,25.73134083,-80.16208883,0.04,242.546,2010-03-18T01:25:00.277Z
20100318,0126.00458,25.73133883,-80.16209217,0.04,24.365,2010-03-18T01:26:00.275Z
20100318,0127.00457,25.7313355,-80.16209467,0.02,180.0,2010-03-18T01:27:00.274Z
20100318,0128.00453,25.7313335,-80.1620915,0.02,180.0,2010-03-18T01:28:00.272Z
20100318,0129.00452,25.73133333,-80.16208817,0.04,0.0,2010-03-18T01:29:00.271Z
20100318,0130.00448,25.73133133,-80.16208467,0.03,42.169,2010-03-18T01:30:00.269Z
20100318,0131.00447,25.731332,-80.16208267,0.03,220.447,2010-03-18T01:31:00.268Z
20100318,0132.00443,25.7313325,-80.16208517,0.03,42.169,2010-03-18T01:32:00.266Z
20100318,0133.00442,25.73133167,-80.16208767,0.03,43.901,2010-03-18T01:33:00.265Z
20100318,0134.00438,25.73133367,-80.162089,0.03,43.901,2010-03-18T01:34:00.263Z
20100318,0135.00437,25.731337,-80.16208583,0.02,270.0,2010-03-18T01:35:00.262Z
20100318,0136.00433,25.73133433,-80.16208717,0.03,319.553,2010-03-18T01:36:00.260Z
20100318,0137.00432,25.73133417,-80.16208717,0.0,0.0,2010-03-18T01:37:00.259Z
20100318,0138.00428,25.731332,-80.162087,0.0,0.0,2010-03-18T01:38:00.257Z
20100318,0139.00427,25.731336,-80.16208667,0.04,336.291,2010-03-18T01:39:00.256Z
20100318,0140.00423,25.7313355,-80.16208783,0.02,270.0,2010-03-18T01:40:00.254Z
20100318,0141.00422,25.73133567,-80.16208633,0.04,297.454,2010-03-18T01:41:00.253Z
20100318,0142.00418,25.731333,-80.16208783,0.02,270.0,2010-03-18T01:42:00.251Z
20100318,0143.00417,25.73133317,-80.16208817,0.02,270.0,2010-03-18T01:43:00.250Z
20100318,0144.00413,25.73133367,-80.1620855,0.0,0.0,2010-03-18T01:44:00.248Z
20100318,0145.00412,25.7313365,-80.16208367,0.0,0.0,2010-03-18T01:45:00.247Z
20100318,0146.00408,25.73133533,-80.162081,0.02,0.0,2010-03-18T01:46:00.245Z
20100318,0147.00407,25.731339,-80.16207983,0.02,270.0,2010-03-18T01:47:00.244Z
20100318,0148.00403,25.73134033,-80.16207983,0.02,0.0,2010-03-18T01:48:00.242Z
20100318,0149.00402,25.73133683,-80.16207683,0.02,90.0,2010-03-18T01:49:00.241Z
20100318,0150.00398,25.73133583,-80.162077,0.0,0.0,2010-03-18T01:50:00.239Z
20100318,0151.00397,25.731334,-80.16207983,0.02,90.0,2010-03-18T01:51:00.238Z
20100318,0152.00393,25.73133267,-80.16208233,0.0,0.0,2010-03-18T01:52:00.236Z
20100318,0153.00392,25.73132967,-80.16208367,0.03,43.901,2010-03-18T01:53:00.235Z
20100318,0154.00388,25.73132767,-80.16208633,0.0,0.0,2010-03-18T01:54:00.233Z
20100318,0155.00387,25.73132533,-80.16208567,0.02,222.169,2010-03-18T01:55:00.232Z
20100318,0156.00383,25.73132517,-80.16208633,0.04,61.84,2010-03-18T01:56:00.230Z
20100318,0157.00382,25.73132783,-80.16208733,0.02,180.0,2010-03-18T01:57:00.229Z
20100318,0158.00378,25.73132833,-80.16208967,0.0,0.0,2010-03-18T01:58:00.227Z
20100318,0159.00377,25.73132867,-80.16209383,0.02,90.0,2010-03-18T01:59:00.226Z
20100318,0200.00373,25.73132817,-80.16209867,0.02,90.0,2010-03-18T02:00:00.224Z
20100318,0201.00372,25.73133267,-80.16210017,0.02,90.0,2010-03-18T02:01:00.223Z
20100318,0202.00368,25.73133533,-80.1621015,0.02,270.0,2010-03-18T02:02:00.221Z
20100318,0203.00367,25.731337,-80.16210267,0.0,0.0,2010-03-18T02:03:00.220Z
20100318,0204.00363,25.73133767,-80.16210317,0.02,270.0,2010-03-18T02:04:00.218Z
20100318,0205.00362,25.73133767,-80.162102,0.02,180.0,2010-03-18T02:05:00.217Z
20100318,0206.00358,25.73133583,-80.16209967,0.0,0.0,2010-03-18T02:06:00.215Z
20100318,0207.00357,25.7313365,-80.1620965,0.03,90.0,2010-03-18T02:07:00.214Z
20100318,0208.00353,25.731335,-80.16209333,0.0,0.0,2010-03-18T02:08:00.212Z
20100318,0209.00352,25.73133283,-80.16209133,0.02,90.0,2010-03-18T02:09:00.211Z
20100318,0210.00348,25.73133083,-80.16209,0.0,0.0,2010-03-18T02:10:00.209Z
20100318,0211.00347,25.731332,-80.16208733,0.02,270.0,2010-03-18T02:11:00.208Z
20100318,0212.00343,25.73133367,-80.162088,0.02,270.0,2010-03-18T02:12:00.206Z
20100318,0213.00342,25.73132983,-80.16209267,0.02,0.0,2010-03-18T02:13:00.205Z
20100318,0214.00338,25.73133233,-80.162097,0.0,0.0,2010-03-18T02:14:00.203Z
20100318,0215.00337,25.731332,-80.16209633,0.03,317.831,2010-03-18T02:15:00.202Z
20100318,0216.00333,25.7313305,-80.1620995,0.02,270.0,2010-03-18T02:16:00.200Z
20100318,0217.00332,25.73132883,-80.16210517,0.0,0.0,2010-03-18T02:17:00.199Z
20100318,0218.00328,25.7313275,-80.16210117,0.02,180.0,2010-03-18T02:18:00.197Z
20100318,0219.00327,25.73132717,-80.16209967,0.02,317.831,2010-03-18T02:19:00.196Z
20100318,0220.00323,25.731329,-80.16209733,0.03,270.0,2010-03-18T02:20:00.194Z
20100318,0221.00322,25.7313335,-80.16209767,0.02,90.0,2010-03-18T02:21:00.193Z
20100318,0222.00318,25.73133767,-80.16209517,0.02,180.0,2010-03-18T02:22:00.191Z
20100318,0223.00317,25.73133783,-80.1620935,0.0,0.0,2010-03-18T02:23:00.190Z
20100318,0224.00313,25.73133767,-80.1620945,0.02,90.0,2010-03-18T02:24:00.188Z
20100318,0225.00312,25.73133633,-80.16209367,0.03,319.553,2010-03-18T02:25:00.187Z
20100318,0226.00308,25.7313365,-80.1620915,0.02,270.0,2010-03-18T02:26:00.185Z
20100318,0227.00307,25.73133817,-80.16208867,0.0,0.0,2010-03-18T02:27:00.184Z
20100318,0228.00303,25.73134083,-80.1620905,0.04,0.0,2010-03-18T02:28:00.182Z
20100318,0229.00302,25.731339,-80.16209133,0.02,90.0,2010-03-18T02:29:00.181Z
20100318,0230.00298,25.73133417,-80.16209217,0.02,180.0,2010-03-18T02:30:00.179Z
20100318,0231.00297,25.73133017,-80.16209317,0.0,0.0,2010-03-18T02:31:00.178Z
20100318,0232.00293,25.73133167,-80.162093,0.03,90.0,2010-03-18T02:32:00.176Z
20100318,0233.00292,25.73133567,-80.16209217,0.03,270.0,2010-03-18T02:33:00.175Z
20100318,0234.00288,25.7313365,-80.16209067,0.0,0.0,2010-03-18T02:34:00.173Z
20100318,0235.00287,25.73133217,-80.16209017,0.0,0.0,2010-03-18T02:35:00.172Z
20100318,0236.00283,25.73132867,-80.16209067,0.02,90.0,2010-03-18T02:36:00.170Z
20100318,0237.00282,25.73132467,-80.16208783,0.02,0.0,2010-03-18T02:37:00.169Z
20100318,0238.00278,25.73132283,-80.16208683,0.02,0.0,2010-03-18T02:38:00.167Z
20100318,0239.00277,25.73132067,-80.1620865,0.02,270.0,2010-03-18T02:39:00.166Z
20100318,0240.00273,25.73132017,-80.16208933,0.03,270.0,2010-03-18T02:40:00.164Z
20100318,0241.00270,25.73132517,-80.16208967,0.04,0.0,2010-03-18T02:41:00.162Z
20100318,0242.00268,25.73133017,-80.16209083,0.03,316.099,2010-03-18T02:42:00.161Z
20100318,0243.00265,25.731337,-80.16209183,0.04,241.1,2010-03-18T02:43:00.159Z
20100318,0244.00263,25.7313385,-80.16209183,0.02,180.0,2010-03-18T02:44:00.158Z
20100318,0245.00260,25.73134083,-80.16208917,0.0,0.0,2010-03-18T02:45:00.156Z
20100318,0246.00258,25.73134033,-80.16208833,0.0,0.0,2010-03-18T02:46:00.155Z
20100318,0247.00255,25.73134167,-80.16208567,0.02,270.0,2010-03-18T02:47:00.153Z
20100318,0248.00253,25.73134083,-80.16208367,0.02,180.0,2010-03-18T02:48:00.152Z
20100318,0249.00250,25.73133733,-80.16208283,0.0,0.0,2010-03-18T02:49:00.150Z
20100318,0250.00248,25.73133583,-80.16208467,0.03,42.169,2010-03-18T02:50:00.149Z
20100318,0251.00245,25.731336,-80.16208483,0.02,180.0,2010-03-18T02:51:00.147Z
20100318,0252.00243,25.73133383,-80.16208617,0.02,180.0,2010-03-18T02:52:00.146Z
20100318,0253.00240,25.73133583,-80.16208883,0.05,270.0,2010-03-18T02:53:00.144Z
20100318,0254.00238,25.731335,-80.1620875,0.0,0.0,2010-03-18T02:54:00.143Z
20100318,0255.00235,25.731335,-80.16209133,0.03,270.0,2010-03-18T02:55:00.141Z
20100318,0256.00233,25.73133467,-80.1620915,0.04,61.84,2010-03-18T02:56:00.140Z
20100318,0257.00230,25.7313325,-80.162092,0.03,90.0,2010-03-18T02:57:00.138Z
20100318,0258.00228,25.73132867,-80.16209033,0.02,90.0,2010-03-18T02:58:00.137Z
20100318,0259.00225,25.73132617,-80.16208833,0.02,90.0,2010-03-18T02:59:00.135Z
20100318,0300.00223,25.73132783,-80.16208883,0.02,180.0,2010-03-18T03:00:00.134Z
20100318,0301.00220,25.73133067,-80.16208767,0.02,270.0,2010-03-18T03:01:00.132Z
20100318,0302.00218,25.73133267,-80.16208517,0.02,270.0,2010-03-18T03:02:00.131Z
20100318,0303.00215,25.73133517,-80.16208283,0.02,90.0,2010-03-18T03:03:00.129Z
20100318,0304.00213,25.7313315,-80.16208167,0.0,0.0,2010-03-18T03:04:00.128Z
20100318,0305.00210,25.7313315,-80.1620855,0.02,270.0,2010-03-18T03:05:00.126Z
20100318,0306.00208,25.7313315,-80.16209033,0.02,0.0,2010-03-18T03:06:00.125Z
20100318,0307.00205,25.73133033,-80.16209083,0.04,0.0,2010-03-18T03:07:00.123Z
20100318,0308.00203,25.73133483,-80.16209283,0.02,90.0,2010-03-18T03:08:00.122Z
20100318,0309.00200,25.731335,-80.16209067,0.03,42.169,2010-03-18T03:09:00.120Z
20100318,0310.00198,25.73133667,-80.1620915,0.0,0.0,2010-03-18T03:10:00.119Z
20100318,0311.00195,25.731333,-80.16208967,0.03,137.831,2010-03-18T03:11:00.117Z
20100318,0312.00193,25.73133333,-80.162084,0.0,0.0,2010-03-18T03:12:00.116Z
20100318,0313.00190,25.73132917,-80.162082,0.02,180.0,2010-03-18T03:13:00.114Z
20100318,0314.00188,25.731326,-80.16208567,0.03,220.447,2010-03-18T03:14:00.113Z
20100318,0315.00185,25.731323,-80.16209,0.02,180.0,2010-03-18T03:15:00.111Z
20100318,0316.00183,25.73131783,-80.16209533,0.04,298.9,2010-03-18T03:16:00.110Z
20100318,0317.00180,25.73132067,-80.16209467,0.03,43.901,2010-03-18T03:17:00.108Z
20100318,0318.00178,25.73132183,-80.16209383,0.03,223.901,2010-03-18T03:18:00.107Z
20100318,0319.00175,25.73132317,-80.16209217,0.02,90.0,2010-03-18T03:19:00.105Z
20100318,0320.00173,25.73132417,-80.16209483,0.0,0.0,2010-03-18T03:20:00.104Z
20100318,0321.00170,25.73132533,-80.16209517,0.0,0.0,2010-03-18T03:21:00.102Z
20100318,0322.00168,25.73132367,-80.16209617,0.05,249.425,2010-03-18T03:22:00.101Z
20100318,0323.00165,25.73132267,-80.16209533,0.02,270.0,2010-03-18T03:23:00.099Z
20100318,0324.00163,25.7313245,-80.16209633,0.03,40.447,2010-03-18T03:24:00.098Z
20100318,0325.00160,25.73132733,-80.16209383,0.03,223.901,2010-03-18T03:25:00.096Z
20100318,0326.00158,25.7313285,-80.16209567,0.03,42.169,2010-03-18T03:26:00.095Z
20100318,0327.00155,25.73132783,-80.162098,0.0,0.0,2010-03-18T03:27:00.093Z
20100318,0328.00153,25.7313265,-80.16209633,0.03,270.0,2010-03-18T03:28:00.092Z
20100318,0329.00150,25.731329,-80.16209367,0.02,0.0,2010-03-18T03:29:00.090Z
20100318,0330.00148,25.73133383,-80.162092,0.02,90.0,2010-03-18T03:30:00.089Z
20100318,0331.00145,25.731334,-80.16208967,0.04,240.371,2010-03-18T03:31:00.087Z
20100318,0332.00143,25.73133233,-80.16208833,0.05,90.0,2010-03-18T03:32:00.086Z
20100318,0333.00140,25.73133183,-80.16208733,0.03,270.0,2010-03-18T03:33:00.084Z
20100318,0334.00138,25.73133217,-80.16208483,0.05,316.979,2010-03-18T03:34:00.083Z
20100318,0335.00135,25.73133367,-80.16208517,0.02,90.0,2010-03-18T03:35:00.081Z
20100318,0336.00133,25.73133,-80.162081,0.02,270.0,2010-03-18T03:36:00.080Z
20100318,0337.00130,25.73133083,-80.162082,0.0,0.0,2010-03-18T03:37:00.078Z
20100318,0338.00128,25.73132867,-80.16208117,0.02,270.0,2010-03-18T03:38:00.077Z
20100318,0339.00125,25.73132917,-80.16208383,0.04,0.0,2010-03-18T03:39:00.075Z
20100318,0340.00123,25.73132783,-80.16208567,0.03,136.099,2010-03-18T03:40:00.074Z
20100318,0341.00120,25.7313225,-80.1620865,0.04,60.371,2010-03-18T03:41:00.072Z
20100318,0342.00118,25.731324,-80.1620835,0.03,317.831,2010-03-18T03:42:00.071Z
20100318,0343.00115,25.73132567,-80.16208283,0.05,316.979,2010-03-18T03:43:00.069Z
20100318,0344.00113,25.731326,-80.16208733,0.02,270.0,2010-03-18T03:44:00.068Z
20100318,0345.00110,25.7313205,-80.16208867,0.02,180.0,2010-03-18T03:45:00.066Z
20100318,0346.00108,25.73131483,-80.16209517,0.03,319.553,2010-03-18T03:46:00.065Z
20100318,0347.00105,25.73131283,-80.16209917,0.04,154.986,2010-03-18T03:47:00.063Z
20100318,0348.00103,25.73131117,-80.16210067,0.04,203.086,2010-03-18T03:48:00.062Z
20100318,0349.00100,25.73131167,-80.16209633,0.05,70.542,2010-03-18T03:49:00.060Z
20100318,0350.00098,25.73131783,-80.16209217,0.02,0.0,2010-03-18T03:50:00.059Z
20100318,0351.00095,25.73132217,-80.16209333,0.03,316.099,2010-03-18T03:51:00.057Z
20100318,0352.00092,25.731327,-80.16209417,0.07,270.0,2010-03-18T03:52:00.055Z
20100318,0353.00090,25.73133017,-80.1620925,0.04,0.0,2010-03-18T03:53:00.054Z
20100318,0354.00087,25.73133083,-80.16209317,0.0,0.0,2010-03-18T03:54:00.052Z
20100318,0355.00085,25.731332,-80.16209267,0.02,270.0,2010-03-18T03:55:00.051Z
20100318,0356.00082,25.7313335,-80.16209,0.0,0.0,2010-03-18T03:56:00.049Z
20100318,0357.00080,25.73133167,-80.16208883,0.0,0.0,2010-03-18T03:57:00.048Z
20100318,0358.00077,25.73133,-80.16208967,0.02,180.0,2010-03-18T03:58:00.046Z
20100318,0359.00075,25.73132883,-80.16209133,0.0,0.0,2010-03-18T03:59:00.045Z
20100318,0400.00072,25.73132883,-80.1620945,0.02,180.0,2010-03-18T04:00:00.043Z
20100318,0401.00070,25.73133,-80.16209567,0.02,270.0,2010-03-18T04:01:00.042Z
20100318,0402.00067,25.7313315,-80.1620975,0.03,317.831,2010-03-18T04:02:00.040Z
20100318,0403.00065,25.73133533,-80.16209667,0.02,0.0,2010-03-18T04:03:00.039Z
20100318,0404.00062,25.731338,-80.16209467,0.03,137.831,2010-03-18T04:04:00.037Z
20100318,0405.00060,25.73133817,-80.16209117,0.03,220.447,2010-03-18T04:05:00.036Z
20100318,0406.00057,25.731333,-80.16209083,0.02,90.0,2010-03-18T04:06:00.034Z
20100318,0407.00055,25.73132467,-80.16209233,0.03,139.553,2010-03-18T04:07:00.033Z
20100318,0408.00052,25.73132617,-80.16209433,0.03,222.169,2010-03-18T04:08:00.031Z
20100318,0409.00050,25.73132867,-80.16209417,0.02,317.831,2010-03-18T04:09:00.030Z
20100318,0410.00047,25.73132817,-80.1620915,0.0,0.0,2010-03-18T04:10:00.028Z
20100318,0411.00045,25.73132967,-80.16208933,0.02,42.169,2010-03-18T04:11:00.027Z
20100318,0412.00042,25.73133183,-80.1620915,0.03,317.831,2010-03-18T04:12:00.025Z
20100318,0413.00040,25.731332,-80.16209533,0.03,317.831,2010-03-18T04:13:00.024Z
20100318,0414.00037,25.731333,-80.1620985,0.0,0.0,2010-03-18T04:14:00.022Z
20100318,0415.00035,25.73133333,-80.16209617,0.0,0.0,2010-03-18T04:15:00.021Z
20100318,0416.00032,25.731336,-80.16209533,0.05,69.425,2010-03-18T04:16:00.019Z
20100318,0417.00030,25.73133817,-80.1620925,0.03,270.0,2010-03-18T04:17:00.018Z
20100318,0418.00027,25.73133767,-80.16209017,0.02,270.0,2010-03-18T04:18:00.016Z
20100318,0419.00025,25.7313415,-80.162092,0.02,270.0,2010-03-18T04:19:00.015Z
20100318,0420.00022,25.73133983,-80.16209183,0.05,109.458,2010-03-18T04:20:00.013Z
20100318,0421.00020,25.73133883,-80.1620925,0.02,270.0,2010-03-18T04:21:00.012Z
20100318,0422.00017,25.73134367,-80.16208667,0.02,270.0,2010-03-18T04:22:00.010Z
20100318,0423.00015,25.73134583,-80.1620855,0.04,241.84,2010-03-18T04:23:00.009Z
20100318,0424.00012,25.73134683,-80.16208583,0.04,118.16,2010-03-18T04:24:00.007Z
20100318,0425.00010,25.73134717,-80.162085,0.02,90.0,2010-03-18T04:25:00.006Z
20100318,0426.00007,25.731347,-80.16208433,0.0,0.0,2010-03-18T04:26:00.004Z
20100318,0427.00005,25.73134617,-80.1620835,0.03,270.0,2010-03-18T04:27:00.003Z
20100318,0428.00002,25.7313465,-80.16208433,0.02,270.0,2010-03-18T04:28:00.001Z
20100318,0429.00000,25.73134517,-80.16208633,0.02,180.0,2010-03-18T04:29:00.000Z
20100318,0429.99997,25.73134083,-80.16208567,0.02,180.0,2010-03-18T04:29:59.998Z
20100318,0430.99995,25.7313375,-80.16209133,0.03,90.0,2010-03-18T04:30:59.997Z
20100318,0431.99992,25.731333,-80.16209217,0.02,180.0,2010-03-18T04:31:59.995Z
20100318,0432.99990,25.73133033,-80.162093,0.02,180.0,2010-03-18T04:32:59.994Z
20100318,0433.99987,25.73133283,-80.16209417,0.0,0.0,2010-03-18T04:33:59.992Z
20100318,0434.99985,25.7313375,-80.16209583,0.02,90.0,2010-03-18T04:34:59.991Z
20100318,0435.99982,25.73134083,-80.16209367,0.02,222.169,2010-03-18T04:35:59.989Z
20100318,0436.99980,25.73134017,-80.16209533,0.03,316.099,2010-03-18T04:36:59.988Z
20100318,0437.99977,25.731338,-80.16210067,0.02,90.0,2010-03-18T04:37:59.986Z
20100318,0438.99975,25.73133717,-80.16209683,0.02,42.169,2010-03-18T04:38:59.985Z
20100318,0439.99972,25.7313395,-80.16208933,0.0,0.0,2010-03-18T04:39:59.983Z
20100318,0440.99970,25.73134117,-80.16208417,0.03,43.901,2010-03-18T04:40:59.982Z
20100318,0441.99967,25.73134217,-80.1620805,0.0,0.0,2010-03-18T04:41:59.980Z
20100318,0442.99965,25.73134167,-80.16208067,0.03,137.831,2010-03-18T04:42:59.979Z
20100318,0443.99962,25.7313385,-80.162079,0.02,180.0,2010-03-18T04:43:59.977Z
20100318,0444.99960,25.73133783,-80.162083,0.02,270.0,2010-03-18T04:44:59.976Z
20100318,0445.99957,25.7313355,-80.1620875,0.0,0.0,2010-03-18T04:45:59.974Z
20100318,0446.99955,25.73133467,-80.162087,0.02,0.0,2010-03-18T04:46:59.973Z
20100318,0447.99952,25.73133233,-80.1620895,0.02,270.0,2010-03-18T04:47:59.971Z
20100318,0448.99950,25.73133067,-80.16209017,0.02,270.0,2010-03-18T04:48:59.970Z
20100318,0449.99947,25.73133,-80.16209233,0.02,270.0,2010-03-18T04:49:59.968Z
20100318,0450.99945,25.73132683,-80.1620935,0.02,0.0,2010-03-18T04:50:59.967Z
20100318,0451.99942,25.73132917,-80.16209283,0.03,316.099,2010-03-18T04:51:59.965Z
20100318,0452.99940,25.73133083,-80.16209067,0.02,180.0,2010-03-18T04:52:59.964Z
20100318,0453.99937,25.73133083,-80.16208917,0.0,0.0,2010-03-18T04:53:59.962Z
20100318,0454.99935,25.73133133,-80.16208883,0.02,0.0,2010-03-18T04:54:59.961Z
20100318,0455.99932,25.73133117,-80.16208667,0.02,90.0,2010-03-18T04:55:59.959Z
20100318,0456.99928,25.7313345,-80.16208583,0.0,0.0,2010-03-18T04:56:59.957Z
20100318,0457.99927,25.731332,-80.16208617,0.02,270.0,2010-03-18T04:57:59.956Z